Tracking 28126 objects as of 1-Oct-2023
HD Live streaming from Space Station
objects crossing your sky now

DELTA 1 DEB

Track DELTA 1 DEB now!
10-day predictions


NORAD ID: 40765
Int'l Code: 1976-077GJ
Perigee: 1,468.9 km
Apogee: 1,514.5 km
Inclination: 102.1 °
Period: 115.6 minutes
Semi major axis: 7862 km
RCS: Unknown
Launch date: July 29, 1976
Source: United States (US)
Launch site: AIR FORCE WESTERN TEST RANGE (AFWTR)

Note: This is SATELLITE DEBRIS
Your satellite tracking list
Your tracking list is empty




NASA's NSSDC Master Catalog

Two Line Element Set (TLE):
1 40765U 76077GJ  23273.41938857  .00000039  00000-0  59031-3 0  9994
2 40765 102.0806 252.6849 0029026 107.8461 252.5774 12.45219113447953
Source of the keplerian elements: AFSPC